W7OWO-1 Weather Reports


time (UTC)temp
C
wind
direction
speed
KPH
gust
KPH
rain 1hr
cm
rain 24hr
cm
rain mn
cm
humidity
%
barometer
mb
20260505111803 8 280 0.0 1.6 0.00 0.00 0.00 100 1014.7
20260505110903 8 280 0.0 1.6 0.00 0.00 0.00 100 1014.6
20260505101803 7 280 1.6 3.2 0.00 0.00 0.00 99 1014.1
20260505100903 8 280 1.6 1.6 0.00 0.00 0.00 98 1014.2
20260505100003 8 280 1.6 1.6 0.00 0.00 0.00 98 1014.2
20260505095403 8 280 0.0 1.6 0.00 0.00 0.00 98 1014.2
20260505094503 8 280 1.6 3.2 0.00 0.00 0.00 98 1014.1
20260505093603 8 280 1.6 1.6 0.00 0.00 0.00 98 1014.1
20260505092703 8 32 1.6 3.2 0.00 0.00 0.00 98 1014.1
20260505091803 8 46 0.0 1.6 0.00 0.00 0.00 98 1014.1
20260505090903 8 46 0.0 1.6 0.00 0.00 0.00 97 1013.9
20260505090003 9 46 1.6 1.6 0.00 0.00 0.00 97 1013.8
20260505085403 9 46 0.0 1.6 0.00 0.00 0.00 97 1013.8
20260505084503 10 0 0.0 0.0 0.00 0.00 0.00 96 1013.8
20260505083603 10 46 0.0 1.6 0.00 0.00 0.00 96 1013.8
20260505082703 10 46 0.0 1.6 0.00 0.00 0.00 96 1013.9
20260505081803 10 46 0.0 1.6 0.00 0.00 0.00 95 1013.7
20260505080903 10 0 0.0 0.0 0.00 0.00 0.00 96 1013.7
20260505080003 10 46 0.0 1.6 0.00 0.00 0.00 96 1013.6
20260505075403 11 61 1.6 3.2 0.00 0.00 0.00 95 1013.5
20260505074524 11 83 1.6 4.8 0.00 0.00 0.00 95 1013.5
20260505073603 11 90 1.6 3.2 0.00 0.00 0.00 95 1013.4
20260505072703 11 99 3.2 4.8 0.00 0.00 0.00 95 1013.3
20260505071803 11 107 0.0 3.2 0.00 0.00 0.00 95 1013.2
20260505070903 11 98 1.6 3.2 0.00 0.00 0.00 95 1013.2
20260505070005 11 130 0.0 3.2 0.00 0.00 0.00 95 1013.1
20260505065424 11 350 0.0 1.6 0.00 0.00 0.00 95 1013.0
20260505064503 11 247 0.0 3.2 0.00 0.00 0.00 95 1012.9
20260505063603 11 196 0.0 3.2 0.00 0.00 0.00 95 1012.9
20260505062703 11 196 0.0 1.6 0.00 0.00 0.00 94 1012.6
20260505061803 11 212 1.6 9.7 0.00 0.00 0.00 95 1012.6
20260505060903 11 205 1.6 4.8 0.00 0.00 0.00 96 1012.6
20260505060003 11 276 0.0 1.6 0.00 0.00 0.00 95 1012.6
20260505055403 12 276 0.0 1.6 0.00 0.00 0.00 94 1012.4
20260505054503 12 0 0.0 0.0 0.00 0.00 0.00 94 1012.4
20260505053603 12 0 0.0 0.0 0.00 0.00 0.00 94 1012.3
20260505052724 12 276 0.0 1.6 0.00 0.00 0.00 93 1012.3
20260505051803 12 276 0.0 1.6 0.00 0.00 0.00 94 1012.3
20260505050903 13 276 1.6 3.2 0.00 0.00 0.00 93 1012.1
20260505040903 15 236 0.0 1.6 0.00 0.00 0.00 86 1011.3
20260505040004 15 0 0.0 0.0 0.00 0.00 0.00 84 1011.2
20260505035403 16 236 0.0 1.6 0.00 0.00 0.00 83 1011.1
20260505034503 16 236 0.0 1.6 0.00 0.00 0.00 82 1010.9
20260505033603 16 235 3.2 4.8 0.00 0.00 0.00 80 1010.8
20260505032703 17 242 1.6 4.8 0.00 0.00 0.00 78 1010.7
20260505031803 17 123 3.2 6.4 0.00 0.00 0.00 78 1010.6
20260505030903 17 117 1.6 3.2 0.00 0.00 0.00 78 1010.5
20260505030003 18 216 0.0 3.2 0.00 0.00 0.00 75 1010.3
20260505025403 18 239 1.6 4.8 0.00 0.00 0.00 73 1010.3
20260505024503 19 186 3.2 11.3 0.00 0.00 0.00 72 1010.2
20260505023603 20 92 3.2 11.3 0.00 0.00 0.00 71 1010.1
20260505022703 20 207 1.6 6.4 0.00 0.00 0.00 70 1010.1
20260505021824 21 243 1.6 8.0 0.00 0.00 0.00 68 1010.0
20260505020903 21 250 3.2 11.3 0.00 0.00 0.00 66 1010.0
20260505020003 22 229 4.8 11.3 0.00 0.00 0.00 65 1010.0
20260505015403 22 227 3.2 8.0 0.00 0.00 0.00 66 1009.9
20260505014503 22 210 3.2 9.7 0.00 0.00 0.00 64 1009.9
20260505013603 23 245 4.8 12.9 0.00 0.00 0.00 63 1010.0
20260505012703 23 281 1.6 6.4 0.00 0.00 0.00 65 1010.0
20260505011803 23 251 8.0 16.1 0.00 0.00 0.00 63 1010.2
20260505010903 23 244 4.8 12.9 0.00 0.00 0.00 64 1010.2
20260505010004 23 264 6.4 16.1 0.00 0.00 0.00 67 1010.1
20260505005403 23 252 6.4 14.5 0.00 0.00 0.00 64 1010.2
20260505004503 23 267 8.0 14.5 0.00 0.00 0.00 66 1010.2
20260505003603 23 267 8.0 14.5 0.00 0.00 0.00 66 1010.3
20260505002703 23 267 6.4 14.5 0.00 0.00 0.00 67 1010.4
20260505001803 23 271 9.7 17.7 0.00 0.00 0.00 67 1010.3
20260505000903 23 233 6.4 12.9 0.00 0.00 0.00 65 1010.3
20260505000003 23 158 3.2 12.9 0.00 0.00 0.00 65 1010.4
20260504235403 23 270 8.0 14.5 0.00 0.00 0.00 67 1010.5
20260504234503 23 274 12.9 19.3 0.00 0.00 0.00 66 1010.6
20260504233603 23 272 8.0 19.3 0.00 0.00 0.00 69 1010.7
20260504232703 23 178 6.4 14.5 0.00 0.00 0.00 70 1010.7
20260504231803 22 101 4.8 11.3 0.00 0.00 0.00 69 1010.9
20260504230903 22 231 6.4 12.9 0.00 0.00 0.00 69 1010.9
20260504230003 22 99 6.4 14.5 0.00 0.00 0.00 70 1010.9
20260504225403 22 112 4.8 12.9 0.00 0.00 0.00 72 1011.1
20260504224503 22 87 8.0 16.1 0.00 0.00 0.00 72 1011.2
20260504223603 22 106 8.0 17.7 0.00 0.00 0.00 69 1011.2
20260504222703 22 260 4.8 14.5 0.00 0.00 0.00 70 1011.4
20260504221803 21 109 6.4 16.1 0.00 0.00 0.00 72 1011.5
20260504220903 21 109 6.4 14.5 0.00 0.00 0.00 71 1011.5
20260504220024 21 111 4.8 9.7 0.00 0.00 0.00 71 1011.6
20260504215403 21 96 6.4 17.7 0.00 0.00 0.00 74 1011.8
20260504214503 21 110 6.4 16.1 0.00 0.00 0.00 73 1011.8
20260504213603 21 105 8.0 14.5 0.00 0.00 0.00 75 1011.9
20260504212703 20 112 8.0 14.5 0.00 0.00 0.00 75 1012.0
20260504211803 20 169 4.8 12.9 0.00 0.00 0.00 74 1012.0
20260504210903 20 168 3.2 8.0 0.00 0.00 0.00 74 1012.3
20260504210004 20 89 8.0 16.1 0.00 0.00 0.00 75 1012.4
20260504205403 19 113 8.0 16.1 0.00 0.00 0.00 76 1012.5
20260504204503 19 127 4.8 12.9 0.00 0.00 0.00 78 1012.6
20260504203603 18 98 6.4 11.3 0.00 0.00 0.00 78 1012.7
20260504202724 18 106 4.8 12.9 0.00 0.00 0.00 78 1012.8
20260504201803 18 121 6.4 12.9 0.00 0.00 0.00 77 1013.0
20260504200903 18 145 4.8 9.7 0.00 0.00 0.00 79 1013.0
20260504200003 18 100 6.4 14.5 0.00 0.00 0.00 80 1013.0
20260504195403 18 85 4.8 14.5 0.00 0.00 0.00 78 1013.0
20260504194503 18 226 4.8 9.7 0.00 0.00 0.00 77 1013.0
20260504193603 17 93 3.2 6.4 0.00 0.00 0.00 82 1013.1
20260504192703 17 165 4.8 12.9 0.00 0.00 0.00 78 1013.1
20260504191803 17 79 6.4 14.5 0.00 0.00 0.00 83 1013.2
20260504190903 17 285 4.8 14.5 0.00 0.00 0.00 81 1013.4
20260504190003 16 181 3.2 8.0 0.00 0.00 0.00 85 1013.4
20260504185403 16 180 3.2 8.0 0.00 0.00 0.00 81 1013.5
20260504184503 16 176 3.2 8.0 0.00 0.00 0.00 82 1013.5
20260504183603 15 95 4.8 9.7 0.00 0.00 0.00 84 1013.5
20260504182703 15 236 6.4 12.9 0.00 0.00 0.00 84 1013.6
20260504181803 15 243 3.2 8.0 0.00 0.00 0.00 86 1013.6
20260504180903 15 139 3.2 11.3 0.00 0.00 0.00 87 1013.6
20260504180003 14 59 4.8 9.7 0.00 0.00 0.00 87 1013.6
20260504175403 14 232 3.2 4.8 0.00 0.00 0.00 86 1013.5
20260504174503 14 133 3.2 8.0 0.00 0.00 0.00 87 1013.5
20260504173604 14 184 1.6 4.8 0.00 0.00 0.00 87 1013.5
20260504172703 14 111 3.2 9.7 0.00 0.00 0.00 87 1013.6
20260504171803 14 89 9.7 19.3 0.00 0.00 0.00 88 1013.5
20260504170903 13 239 3.2 6.4 0.00 0.00 0.00 88 1013.5
20260504150903 12 112 3.2 9.7 0.00 0.00 0.00 94 1013.1
20260504140903 11 61 3.2 6.4 0.00 0.00 0.00 97 1012.4